Change the Weather History Date:

Tuesday, October 1, 2013

  Actual Average Record
Temperature  
Mean Temperature 76 °F -  
Max Temperature 86 °F 80 °F 93 °F (1998)
Min Temperature 68 °F 61 °F 48 °F (2011)
Cooling Degree Days 12    
Growing Degree Days 26 (Base 50)    
Moisture  
Dew Point 65 °F    
Average Humidity 74    
Maximum Humidity 97    
Minimum Humidity 50    
Precipitation  
Precipitation 0.00 in - - ()
Sea Level Pressure  
Sea Level Pressure 30.08 in    
Wind  
Wind Speed 6 mph (ENE)    
Max Wind Speed 9 mph    
Max Gust Speed -    
Visibility 10 miles    
Events Rain    
Averages and records for this station are not official NWS values.
T = Trace of Precipitation, MM = Missing Value Source: NWS Daily Summary

Daily Weather History Graph

Daily Weather History Graph

Search for Another Location

Airport or City:

Trip Planner

Search our weather history database for the weather conditions in past years. The results will help you decide how hot, cold, wet, or windy it might be!

Date:

Astronomy

Oct. 01, 2013 Rise Set
Actual Time 6:39 AM CDT 6:29 PM CDT
Civil Twilight 6:15 AM CDT 6:54 PM CDT
Nautical Twilight 5:46 AM CDT 7:22 PM CDT
Astronomical Twilight 5:18 AM CDT 7:51 PM CDT
Moon 3:23 AM CDT (10/1) 4:25 PM CDT (10/1)
Length of Visible Light 12h 39m
Length of Day
11h 50m
Waning Crescent, 12% of the Moon is Illuminated
Oct 1
Waning Crescent
Oct 4
New
Oct 11
First Quarter
Oct 18
Full
Oct 26
Last Quarter

Hourly Weather History & Observations

Time (CDT) Temp. Heat Index Dew Point Humidity Pressure Visibility Wind Dir Wind Speed Gust Speed Precip Events Conditions
12:58 AM 70.7 °F - 66.4 °F 86% 30.04 in 10.0 mi SE 9.2 mph - N/A   Overcast
1:58 AM 70.3 °F - 65.3 °F 84% 30.05 in 10.0 mi SE 6.9 mph - N/A   Overcast
2:58 AM 69.8 °F - 64.4 °F 83% 30.05 in 10.0 mi SE 6.9 mph - N/A   Overcast
3:58 AM 69.1 °F - 63.7 °F 83% 30.06 in 10.0 mi ESE 5.8 mph - N/A   Overcast
4:55 AM 69.8 °F - 62.6 °F 78% 30.06 in 10.0 mi ESE 3.5 mph - N/A   Overcast
5:58 AM 69.4 °F - 63.5 °F 81% 30.09 in 10.0 mi NE 3.5 mph - N/A   Overcast
6:58 AM 68.4 °F - 65.1 °F 89% 30.10 in 9.0 mi NE 4.6 mph - N/A   Overcast
7:58 AM 68.5 °F - 64.6 °F 87% 30.12 in 10.0 mi NNE 6.9 mph - N/A   Overcast
8:58 AM 70.3 °F - 64.6 °F 82% 30.13 in 10.0 mi East 4.6 mph - N/A   Overcast
9:58 AM 72.7 °F - 64.2 °F 75% 30.14 in 10.0 mi ESE 4.6 mph - N/A   Overcast
10:58 AM 77.2 °F - 65.1 °F 66% 30.13 in 10.0 mi Variable 4.6 mph - N/A   Partly Cloudy
11:58 AM 79.2 °F - 66.4 °F 65% 30.11 in 10.0 mi Variable 4.6 mph - N/A   Clear
12:58 PM 82.6 °F 84.9 °F 66.6 °F 58% 30.08 in 10.0 mi East 5.8 mph - N/A   Clear
1:58 PM 84.0 °F 85.8 °F 65.1 °F 53% 30.06 in 10.0 mi East 6.9 mph - N/A   Clear
1:59 PM 84.2 °F 85.6 °F 64.4 °F 51% 30.05 in 10.0 mi East 4.6 mph - N/A Rain Light Rain
2:09 PM 84.2 °F 85.6 °F 64.4 °F 51% 30.05 in 5.0 mi ENE 8.1 mph - N/A   Haze
2:58 PM 84.6 °F 85.9 °F 64.0 °F 50% 30.04 in 10.0 mi NE 8.1 mph - 0.00 in   Clear
3:58 PM 85.5 °F 87.1 °F 64.8 °F 50% 30.04 in 10.0 mi ENE 5.8 mph - N/A   Clear
4:58 PM 83.1 °F 84.6 °F 64.2 °F 53% 30.04 in 10.0 mi NE 4.6 mph - N/A   Partly Cloudy
5:58 PM 82.0 °F 83.6 °F 64.6 °F 55% 30.05 in 10.0 mi NE 4.6 mph - N/A   Clear
6:58 PM 76.3 °F - 65.7 °F 70% 30.05 in 10.0 mi NE 2.3 mph - N/A   Clear
7:58 PM 71.6 °F - 67.3 °F 86% 30.06 in 10.0 mi Calm Calm - N/A   Clear
8:58 PM 70.0 °F - 68.0 °F 93% 30.08 in 10.0 mi North 1.2 mph - N/A   Clear
9:58 PM 68.9 °F - 68.0 °F 97% 30.09 in 10.0 mi NNE 2.3 mph - N/A   Clear
10:58 PM 68.0 °F - 67.1 °F 97% 30.10 in 10.0 mi North 2.3 mph - N/A   Clear
11:58 PM 68.7 °F - 67.1 °F 95% 30.10 in 10.0 mi NNE 2.3 mph - N/A   Clear